GEFSSE_500_meanwind_138.txt.gz
Wind_Speed
1 2 3 3 4 4 4 3 2 2 2 2 2 2 2 2 3 3 3 3 3 4 4 5 5 5 5 5 5 6 6 7 7 7 7 7 8 8 8 9 9 9 9
1 1 2 2 3 3 3 2 1 1 1 1 1 1 1 1 2 2 2 2 2 3 3 3 4 4 4 4 4 5 5 5 6 6 6 6 7 7 7 8 8 8 8
2 2 2 2 2 3 3 2 1 1 1 1 1 1 1 1 1 1 2 2 2 2 2 2 3 3 3 4 4 4 4 4 4 5 5 5 6 6 6 7 8 8 8
3 3 3 3 3 3 3 3 2 2 2 2 2 2 2 1 1 1 1 1 2 2 1 1 2 2 3 3 3 3 3 3 3 3 4 5 5 5 5 6 6 7 7
3 4 4 4 4 4 4 4 3 3 2 2 2 3 2 2 1 2 1 2 2 2 2 1 1 2 2 2 2 2 2 3 2 3 3 4 4 4 4 5 5 5 6
2 4 5 5 5 5 5 5 5 4 3 3 4 3 3 3 2 2 2 3 3 3 3 2 2 2 2 2 1 1 1 1 2 2 2 3 3 3 3 3 4 4 5
2 4 6 7 7 7 7 7 6 6 5 5 5 4 4 4 4 3 4 4 3 3 3 3 2 2 2 2 1 1 0 1 1 1 1 2 2 2 2 2 3 3 4
3 4 5 7 8 9 8 8 7 7 6 6 5 5 5 5 5 4 5 4 4 4 4 4 3 3 2 2 2 1 1 0 1 1 1 1 1 1 1 2 2 2 3
3 4 6 7 8 9 10 9 9 8 8 7 6 6 6 5 5 5 6 5 5 5 4 4 3 3 3 2 2 2 1 1 1 1 1 0 1 1 1 1 1 2 2
4 4 5 7 8 9 10 10 10 10 9 8 7 7 7 6 6 6 6 6 5 5 5 4 4 3 3 2 2 2 1 2 1 2 1 1 1 1 1 1 1 1 1
4 5 6 7 9 10 11 11 12 11 11 10 9 8 8 7 7 6 6 5 5 5 5 4 4 3 2 2 2 2 2 1 1 1 1 1 1 1 1 1 1 1 2
5 6 7 8 10 11 11 12 13 13 12 12 11 10 9 8 8 7 6 6 5 5 5 5 4 3 2 1 1 2 1 2 2 1 1 1 1 1 1 1 1 2 2
5 6 7 8 9 10 12 13 14 14 13 13 12 11 10 9 8 7 7 6 6 6 5 4 3 3 1 1 1 1 1 1 1 1 0 1 1 1 1 1 1 2 2
6 7 8 8 8 10 11 12 14 15 15 15 14 13 12 11 10 8 7 7 6 6 5 5 4 3 1 1 1 1 1 1 1 1 1 0 0 1 1 1 1 1 2
7 8 8 7 8 9 11 12 13 14 15 15 15 14 13 12 11 10 9 8 7 6 6 5 4 3 2 1 1 1 1 1 1 1 1 1 1 1 1 1 1 1 1
8 8 9 9 9 10 11 12 13 14 15 16 16 16 15 14 13 12 11 9 8 7 6 5 4 3 3 2 2 1 2 1 0 0 1 1 1 1 1 1 1 1 1
10 10 9 9 10 10 12 13 14 15 15 16 16 17 15 15 14 13 11 10 9 7 6 5 4 4 4 3 2 2 2 1 1 0 1 1 1 1 1 0 0 0 0
12 11 10 9 9 10 12 13 15 16 16 16 16 16 16 16 15 14 13 11 10 9 8 6 5 4 4 3 3 2 2 2 2 1 1 2 1 1 1 1 1 1 1
12 11 11 11 11 11 11 12 13 14 15 16 16 15 16 16 16 15 13 11 10 10 9 7 6 5 4 4 3 2 2 2 2 1 1 2 2 1 1 1 1 0 1
12 11 11 12 12 12 12 13 13 14 15 16 16 14 15 15 16 15 13 12 11 11 9 8 7 6 5 4 3 3 3 3 3 2 2 1 2 1 1 1 1 1 0
12 11 12 12 12 12 11 12 14 14 15 16 16 15 14 15 16 15 15 13 13 12 10 9 8 7 6 5 4 4 4 4 3 3 2 1 2 2 1 1 1 1 1
12 12 11 11 12 12 12 13 13 14 14 15 16 16 16 16 16 16 16 15 13 12 11 10 10 9 7 6 5 4 4 4 3 3 2 2 2 2 1 1 1 1 1
12 11 10 10 10 11 12 14 14 14 14 15 16 17 17 17 17 16 16 15 14 14 13 12 11 10 9 7 6 5 5 4 4 3 2 2 2 1 1 1 1 1 2
11 10 10 10 9 10 11 13 15 15 15 16 18 19 18 18 18 16 16 16 16 15 14 13 13 12 10 9 7 6 5 4 4 3 3 2 2 2 1 1 1 2 3
10 9 9 10 10 10 11 12 14 14 15 17 19 19 19 19 18 17 17 17 17 17 16 15 14 13 11 10 8 7 6 6 5 5 4 3 3 3 2 3 4 4 4
8 8 8 9 10 10 10 11 13 14 15 17 19 20 19 19 19 18 18 18 19 18 17 16 15 14 12 11 10 9 8 7 7 6 6 5 5 4 4 5 6 6 7

GEFSSE_500_meanwind_144.txt.gz
Wind_Speed
4 3 3 3 4 6 7 8 9 9 9 9 9 8 7 7 7 7 7 7 6 6 7 7 7 7 7 7 6 6 6 7 8 8 8 9 9 9 9 9 9 9 9
2 2 2 2 3 4 5 7 8 8 9 8 8 8 7 6 7 7 7 7 6 6 6 6 6 6 6 6 6 5 6 6 7 7 7 8 8 8 8 9 9 9 9
1 1 1 2 2 3 4 5 6 7 8 8 8 7 7 6 6 6 6 6 6 6 6 6 6 6 6 6 6 5 5 5 6 6 6 7 7 7 8 8 8 9 9
1 2 2 2 2 3 4 4 5 6 6 6 6 6 6 6 6 6 6 6 7 7 6 6 6 6 6 6 5 4 4 4 5 5 5 6 6 6 7 7 7 8 8
2 3 3 3 2 3 4 4 4 4 5 5 5 6 6 6 6 6 6 7 7 7 6 6 6 6 6 5 4 4 3 3 4 4 5 5 5 5 6 6 6 7 7
2 3 4 3 3 3 3 3 3 4 4 5 5 5 5 5 5 6 6 6 7 6 6 5 5 5 5 5 4 4 3 3 4 4 4 4 5 5 5 5 5 5 6
3 4 4 4 4 3 3 3 3 3 3 3 3 3 4 4 5 5 5 6 6 6 6 5 5 5 5 4 4 4 3 3 3 3 3 4 4 3 3 4 4 4 5
3 4 5 5 5 5 4 4 3 3 3 2 2 2 3 3 4 5 5 5 5 5 5 4 5 5 4 4 4 3 3 2 2 2 3 3 2 2 2 3 3 3 4
3 4 5 6 5 5 5 5 4 4 3 2 2 1 2 2 3 4 5 5 5 4 4 4 4 4 4 4 3 3 2 2 2 2 2 2 2 1 1 1 1 2 2
3 4 5 6 6 6 6 6 6 5 4 4 3 1 0 1 2 3 4 4 4 4 4 5 4 4 4 3 3 2 2 2 1 1 1 1 1 1 0 0 1 1 1
3 3 4 5 6 7 7 7 7 7 6 5 4 3 2 1 1 2 3 3 3 3 4 5 4 4 3 3 2 2 2 2 2 1 0 0 0 0 0 1 1 2 2
4 4 4 5 6 7 8 8 8 8 7 7 6 5 4 2 2 1 1 2 3 3 4 4 4 3 3 2 2 1 1 1 1 0 0 0 1 1 1 1 2 2 3
5 5 5 5 7 8 8 9 8 9 9 8 8 7 6 4 3 3 2 2 2 2 3 3 3 3 3 2 2 1 1 1 0 0 0 0 1 1 1 2 2 2 3
7 7 7 7 7 8 9 9 9 9 10 10 10 9 8 7 6 5 4 3 2 2 2 3 3 3 2 2 1 1 0 0 0 0 1 0 0 1 1 2 2 2 2
9 8 9 8 7 9 10 10 10 10 11 11 12 11 10 9 8 7 6 5 4 3 2 2 2 2 2 1 1 1 0 0 0 1 0 0 1 1 1 2 2 2 2
9 8 8 9 9 9 10 11 11 11 11 12 12 12 11 11 9 9 8 7 6 5 3 2 2 1 1 1 1 1 1 1 0 0 1 1 1 1 1 2 2 2 2
11 10 9 10 9 10 11 12 12 13 13 13 13 12 12 12 11 10 10 9 8 6 5 3 2 2 2 1 1 1 1 1 1 1 1 1 1 1 1 2 2 2 2
12 11 10 10 10 11 12 13 13 13 12 12 13 14 13 13 12 11 12 11 10 8 6 5 4 4 3 2 2 2 2 1 1 1 1 1 1 1 1 1 2 2 2
12 12 12 11 11 12 13 13 14 14 14 13 14 15 14 14 13 13 13 12 11 9 8 7 5 5 4 4 3 3 3 3 2 1 1 1 1 1 1 1 1 2 2
14 14 13 13 12 13 13 13 14 14 15 14 15 16 16 14 13 12 13 13 12 11 9 8 7 6 6 5 4 3 3 3 3 2 2 2 2 2 2 2 2 2 2
16 16 13 13 13 13 15 15 16 16 16 16 16 16 17 16 14 12 13 13 14 12 11 10 9 8 7 6 5 4 4 4 4 4 3 3 3 2 2 2 2 3 3
16 17 15 14 15 14 14 15 15 17 18 17 16 16 16 15 15 13 13 14 15 14 12 11 10 9 8 7 6 6 5 5 5 5 5 4 3 3 3 3 3 3 3
17 17 16 14 14 14 14 14 13 14 16 16 17 16 17 17 17 16 15 15 16 15 14 13 12 11 10 9 8 7 7 6 5 5 5 5 4 4 4 3 3 3 4
16 16 14 12 13 13 13 13 13 14 16 17 17 18 18 18 17 17 17 17 17 16 15 14 13 13 12 11 10 9 8 8 7 7 6 6 5 5 5 5 4 4 4
17 14 12 10 11 12 12 13 14 15 16 17 18 18 19 19 19 18 19 18 18 17 16 16 15 14 14 13 12 11 10 9 9 8 8 7 7 7 6 6 6 6 6
15 12 10 9 9 11 12 12 13 14 16 17 18 19 19 21 21 20 19 19 19 18 17 17 17 16 16 15 14 13 12 11 10 10 10 9 9 9 8 8 8 8 9

GEFSSE_500_meanwind_150.txt.gz
Wind_Speed
8 8 8 7 7 7 8 9 10 11 12 12 12 12 12 11 11 11 11 10 9 9 9 8 8 7 7 7 7 7 8 8 7 7 8 8 8 8 8 8 8 8 8
8 8 7 7 6 6 7 8 9 11 11 11 11 12 11 11 11 11 10 10 9 9 8 8 7 7 7 6 6 6 7 7 7 7 7 7 7 7 8 8 8 8 8
7 7 7 7 6 6 6 7 9 10 11 11 11 11 11 11 11 10 10 9 9 8 8 7 7 6 6 6 6 6 6 6 6 6 7 6 6 7 7 7 7 7 7
6 6 7 6 6 6 6 7 8 10 10 11 11 10 11 11 10 10 9 9 8 8 7 7 6 6 6 6 6 6 6 5 6 6 6 6 6 6 6 6 6 7 7
5 5 6 6 6 6 7 7 8 9 9 10 10 10 10 10 9 9 8 8 7 7 7 6 6 6 6 5 5 6 6 5 5 5 5 5 5 5 5 5 6 6 6
4 4 5 5 6 6 7 8 8 9 9 9 10 9 9 9 8 8 7 7 7 6 6 6 6 6 5 5 5 5 5 5 5 5 5 5 5 5 5 5 5 5 5
3 3 5 5 6 6 7 8 8 9 9 9 9 9 9 8 7 7 6 6 6 6 5 5 5 5 5 5 5 5 5 5 5 5 4 4 4 4 4 4 4 4 4
1 2 4 6 6 7 7 8 8 8 9 9 9 8 8 8 7 7 6 5 5 5 5 5 5 4 4 4 4 5 5 5 4 4 4 4 4 4 4 4 4 4 4
1 1 3 5 6 7 8 8 9 9 9 9 8 8 8 7 7 6 6 5 4 4 4 4 4 4 4 4 4 4 4 4 4 4 4 3 3 4 4 4 3 3 3
0 1 3 4 6 7 8 9 9 9 9 9 8 8 8 7 7 6 5 5 4 4 4 4 4 3 4 3 4 4 4 3 3 3 3 3 3 3 3 3 3 3 3
2 2 3 4 6 7 8 9 9 9 9 9 8 8 8 7 7 6 5 4 4 3 3 3 3 3 3 3 3 4 3 3 2 3 3 3 3 3 2 3 3 3 3
3 3 4 5 6 7 8 9 9 9 9 9 9 8 8 7 7 6 5 4 4 3 3 3 3 3 3 3 3 3 3 3 3 3 2 2 2 2 3 3 3 3 3
4 4 5 6 7 8 9 9 9 10 10 10 10 9 9 8 7 6 6 5 4 3 3 3 3 2 3 3 3 3 3 2 2 2 2 2 2 2 2 3 3 3 4
5 6 7 8 8 9 9 9 10 10 11 11 11 10 10 9 8 8 7 6 5 4 3 3 2 2 2 2 3 3 3 2 2 2 2 2 2 2 2 2 3 2 3
6 7 7 9 10 10 10 10 10 11 12 12 12 11 11 10 10 9 8 7 6 5 4 3 3 2 2 2 3 3 3 2 1 1 2 2 1 2 2 2 2 2 3
8 7 7 9 10 11 11 12 12 13 13 13 13 12 11 11 11 10 10 9 8 6 5 4 4 3 3 3 3 3 2 1 1 1 1 1 1 1 2 2 2 2 2
8 7 7 9 10 12 13 13 14 14 14 14 14 14 13 12 12 11 11 11 9 8 7 5 5 4 4 3 3 3 3 2 1 1 1 1 1 2 2 2 2 2 2
9 9 9 10 11 11 12 13 14 14 15 16 15 15 15 14 13 12 13 12 11 9 8 7 6 5 5 4 4 3 3 3 2 1 2 2 2 2 2 2 2 2 2
11 11 12 12 13 13 12 13 14 15 15 16 16 17 16 15 14 14 14 14 13 11 9 8 7 7 6 6 5 4 3 3 3 2 2 2 2 2 2 2 2 2 2
12 13 13 13 12 13 14 15 15 15 15 16 17 18 17 17 16 15 15 15 14 12 11 10 9 8 7 7 6 5 4 4 4 3 2 2 2 3 3 2 2 2 2
14 14 14 13 13 13 15 16 16 16 15 16 17 17 18 18 17 15 15 15 15 14 12 12 10 10 9 8 6 5 5 5 5 4 4 4 3 4 4 4 3 3 3
15 15 16 15 13 13 14 16 17 18 17 17 16 17 18 18 18 16 15 15 15 15 14 12 12 11 10 9 8 7 6 6 5 5 5 5 5 4 4 4 5 4 4
15 16 16 15 13 13 14 16 17 18 19 18 18 18 18 20 20 18 17 16 16 16 15 14 14 13 12 11 10 8 7 7 7 7 6 6 6 6 6 6 6 5 5
15 16 16 16 14 14 14 15 16 17 18 18 18 19 19 20 20 20 19 18 17 17 16 16 15 15 13 12 11 10 9 9 8 8 8 8 8 7 7 7 7 7 6
15 16 16 16 15 14 14 15 15 16 18 18 18 18 19 19 20 20 20 19 18 17 17 17 16 16 15 14 13 12 12 11 10 10 10 10 10 9 9 9 9 9 9
15 15 15 14 14 14 14 14 14 15 18 19 18 17 18 19 19 19 19 19 19 18 18 18 18 17 17 16 16 15 14 13 13 12 12 12 12 11 11 11 11 11 11

GEFSSE_500_meanwind_156.txt.gz
Wind_Speed
6 7 7 7 6 5 5 5 6 6 6 7 8 8 8 8 8 8 8 8 8 8 7 7 7 7 7 7 7 7 7 7 7 7 7 7 8 8 8 7 7 7 7
4 5 6 6 5 5 5 5 5 5 5 6 7 7 8 8 8 8 8 7 7 7 7 6 6 6 6 6 6 6 6 7 7 7 7 7 7 7 7 7 7 7 7
3 4 4 5 5 4 4 4 4 4 5 5 6 6 7 7 7 7 7 6 6 6 6 6 6 5 5 5 5 5 5 6 6 6 6 7 7 7 7 7 7 6 6
2 3 3 4 4 3 3 3 4 4 4 4 5 5 6 6 6 6 6 5 5 5 5 5 5 5 5 4 4 4 5 5 5 6 6 6 6 6 6 6 6 6 6
2 2 3 3 3 3 3 3 4 4 4 4 4 5 5 5 5 5 4 4 4 5 5 4 4 5 4 4 4 4 4 5 5 5 5 5 5 5 5 5 6 5 5
1 2 2 3 3 3 3 3 4 4 5 5 4 4 5 5 4 4 3 4 4 4 4 4 4 4 4 4 4 4 4 4 4 4 4 4 4 4 4 4 5 5 4
1 2 2 3 3 3 4 4 4 5 5 5 5 5 4 4 4 3 3 3 4 4 4 4 4 4 4 3 4 3 3 3 3 3 3 3 3 3 3 3 3 3 3
2 2 2 3 3 4 4 5 5 5 6 5 5 5 4 4 4 3 3 3 3 3 3 3 3 3 3 3 3 3 3 3 3 2 2 2 2 2 2 2 2 2 2
2 2 3 3 4 4 5 5 6 6 6 6 6 5 5 4 4 3 3 2 2 2 2 2 2 2 2 3 3 3 3 3 3 2 2 2 2 1 1 1 1 1 1
3 3 3 4 4 5 5 6 6 7 7 7 7 6 6 5 5 4 3 2 2 1 2 2 2 2 2 2 2 2 2 2 2 2 2 1 1 1 1 0 0 1 1
4 4 4 4 5 5 6 7 7 7 8 8 8 7 6 6 6 5 4 3 2 2 2 2 2 1 1 1 2 2 2 2 2 2 1 1 1 1 0 0 1 2 2
5 5 5 5 5 6 6 7 8 8 9 9 9 8 7 7 6 5 4 4 3 2 2 2 2 2 1 1 2 2 1 1 1 1 1 1 1 1 1 1 2 2 2
7 7 6 6 6 6 6 7 8 9 10 10 9 9 8 7 6 6 5 5 4 3 3 2 2 2 1 1 2 2 1 1 1 1 1 0 0 0 1 1 2 2 3
8 8 7 7 7 7 7 8 9 9 10 10 10 9 9 8 7 7 7 6 5 4 3 3 2 2 2 2 2 2 1 1 1 0 0 0 1 1 1 1 2 2 2
9 9 8 7 7 7 8 9 10 9 10 11 10 10 9 9 8 8 8 8 6 4 4 4 3 3 3 2 2 2 2 1 1 0 0 0 1 1 1 1 1 2 2
10 10 9 9 8 8 8 9 10 10 10 10 11 11 10 10 10 9 9 8 7 6 5 5 4 3 3 3 2 1 2 1 0 0 0 1 1 1 1 1 1 1 1
10 10 10 9 9 9 10 10 10 10 10 10 11 11 11 11 10 10 9 9 9 8 7 6 5 4 3 3 3 2 2 2 1 1 1 1 1 1 1 1 1 1 1
11 10 10 10 9 9 10 11 11 12 11 11 12 12 12 12 11 11 11 10 10 9 8 7 6 4 4 4 3 3 2 2 1 1 2 2 2 1 1 1 1 1 1
11 11 11 12 11 10 10 10 12 13 12 13 13 13 13 13 13 13 12 11 11 11 9 8 7 6 5 5 4 4 3 3 2 2 2 2 1 1 1 1 1 1 2
12 12 13 13 13 12 11 11 11 13 13 13 13 14 14 14 14 14 14 12 12 12 11 10 9 8 7 6 6 5 4 4 3 3 3 2 2 2 2 2 1 1 2
13 14 14 15 14 14 13 12 12 13 14 15 14 14 15 15 15 15 15 14 13 13 12 11 11 10 8 7 7 6 6 5 4 4 4 3 3 2 2 2 2 2 2
15 15 15 16 15 15 14 13 12 13 13 14 15 14 15 15 15 16 16 15 15 14 13 13 12 11 10 9 8 8 7 6 6 5 5 4 4 4 3 3 3 3 3
16 16 17 17 17 16 15 15 14 13 14 15 15 16 15 16 16 16 16 16 15 15 15 14 13 12 11 11 10 9 8 8 7 6 6 5 5 5 5 5 4 4 4
17 17 17 18 18 17 16 16 15 13 14 15 16 16 16 17 16 16 16 16 17 16 16 16 15 14 13 13 12 11 10 10 9 8 8 7 7 7 7 7 6 5 5
18 18 18 19 18 17 17 17 16 14 15 16 16 16 15 16 16 17 17 16 16 17 17 17 16 16 15 14 14 13 12 11 11 10 10 10 9 9 9 9 8 8 8
18 18 18 18 17 17 16 16 15 14 14 14 14 15 14 15 16 16 17 17 17 18 18 18 17 17 17 16 16 15 14 13 13 13 12 12 11 11 10 11 11 11 10

GEFSSE_500_meanwind_162.txt.gz
Wind_Speed
7 8 7 7 7 6 6 5 5 4 4 4 4 4 4 5 5 5 6 6 6 6 7 7 7 7 7 7 8 7 8 8 8 8 9 9 9 9 9 9 9 9 8
6 7 7 6 6 5 5 4 4 4 4 3 3 3 3 4 4 5 5 5 5 5 6 6 6 6 6 7 7 7 7 8 8 8 8 9 9 9 9 9 9 8 8
6 6 6 5 5 4 4 3 3 3 3 3 2 2 2 3 3 3 4 4 4 5 5 5 5 5 6 6 6 6 7 7 7 7 8 8 8 8 8 8 8 8 8
5 5 5 5 4 4 3 2 2 2 2 3 3 2 2 3 3 3 3 4 4 4 4 4 4 5 5 5 5 6 6 6 7 7 7 7 7 7 8 7 7 7 7
4 4 4 3 3 3 2 2 1 1 2 2 2 2 2 2 3 3 3 3 3 3 3 3 4 4 4 5 5 5 6 6 6 6 7 6 6 7 7 6 6 7 7
3 3 2 2 2 2 1 1 1 0 1 1 2 2 2 2 2 2 3 3 2 2 3 3 3 4 4 4 5 5 5 5 5 6 6 5 5 5 6 6 6 6 6
3 2 2 2 1 1 1 1 1 0 0 1 1 2 2 2 2 3 3 3 2 2 2 3 3 3 4 4 4 4 4 4 4 4 4 4 4 4 4 4 5 5 5
4 2 1 1 1 1 1 1 1 1 1 1 1 2 2 2 2 3 3 3 3 2 2 2 3 3 4 4 4 4 4 4 3 4 4 3 3 3 3 3 3 4 4
3 2 1 0 1 1 1 2 1 2 2 1 2 2 2 3 3 3 3 3 3 2 2 2 3 3 3 3 4 4 4 3 3 4 3 3 2 2 2 2 2 2 3
4 3 2 1 1 2 2 2 2 2 2 2 2 2 3 3 3 3 3 3 2 2 1 1 2 2 3 3 3 3 3 3 3 3 2 2 2 2 2 1 1 1 1
4 3 2 2 1 2 3 3 3 3 3 3 3 3 3 3 3 3 3 3 2 2 2 1 1 2 2 2 2 3 3 3 2 2 2 2 1 1 1 1 0 0 1
5 4 3 2 1 2 3 4 4 4 3 3 4 4 4 4 3 3 3 3 2 2 2 1 0 1 1 2 2 2 2 2 2 2 1 1 1 1 0 0 1 1 1
6 5 4 4 2 2 3 4 4 4 4 4 4 4 4 4 3 3 3 2 2 2 2 2 1 0 1 1 1 1 1 1 1 1 1 1 0 1 1 1 1 1 1
6 5 5 4 3 2 3 4 4 5 5 5 5 5 4 4 4 3 3 3 2 2 2 2 2 1 0 1 1 1 1 1 0 0 0 0 0 1 1 1 1 1 1
6 6 5 4 4 3 3 4 5 6 6 5 6 6 6 5 5 5 5 4 4 3 3 3 3 2 1 1 1 1 1 1 1 1 1 1 1 1 1 2 2 2 2
5 5 5 4 4 4 4 4 5 6 7 7 7 8 8 7 7 6 6 5 5 4 3 3 3 2 2 2 2 2 2 1 1 1 1 1 1 1 1 1 1 1 2
5 5 5 5 4 4 4 4 6 6 7 8 8 9 9 9 8 8 7 6 6 5 4 4 4 3 3 2 3 3 2 2 2 2 2 2 2 2 1 1 1 1 1
6 6 6 5 5 5 5 5 6 8 8 8 8 9 10 10 10 10 9 8 8 7 6 6 5 5 4 4 4 4 3 3 3 3 3 3 3 2 2 2 2 1 1
7 7 6 7 7 7 6 5 6 7 9 9 9 10 11 11 11 11 10 10 9 8 8 7 7 6 5 5 5 5 4 3 4 4 4 4 4 3 3 3 2 2 2
8 7 7 8 9 8 8 7 6 7 9 10 11 11 11 11 12 12 11 11 11 10 9 9 9 8 7 6 6 6 5 5 4 5 4 4 4 4 3 3 3 3 3
8 9 9 9 10 10 10 10 9 8 9 10 11 12 11 11 12 13 13 12 12 12 11 11 11 10 9 8 8 8 7 6 6 6 6 5 5 5 5 4 4 4 3
10 10 9 10 10 11 11 11 10 9 9 11 11 12 12 12 12 13 14 13 13 13 13 12 12 12 11 10 10 9 8 8 7 7 7 7 7 7 7 6 6 5 5
10 10 10 10 11 12 12 12 11 10 10 11 13 13 13 13 14 14 15 15 15 15 14 14 13 13 13 12 12 11 10 10 9 9 9 9 9 9 8 8 8 7 7
11 11 11 11 13 13 13 12 12 11 12 12 12 13 13 13 14 15 15 15 15 16 16 16 15 15 14 14 14 13 12 12 11 11 10 11 10 10 10 10 10 10 9
11 12 13 13 14 14 13 13 13 12 11 11 11 12 12 12 13 14 15 16 16 17 18 17 17 17 16 16 16 15 15 14 14 13 12 12 12 12 12 12 12 11 11
12 13 13 14 14 14 13 13 12 11 10 10 10 11 11 12 13 14 15 17 16 17 18 19 19 18 18 17 17 17 17 16 16 15 15 15 15 14 14 14 14 14 14

GEFSSE_500_meanwind_168.txt.gz
Wind_Speed
7 7 8 9 10 11 11 12 12 12 12 12 11 11 11 10 10 10 10 9 9 8 8 8 8 7 8 8 8 8 7 8 8 8 8 8 9 9 8 8 8 8 8
6 6 7 8 9 10 11 11 11 11 11 11 10 10 10 10 10 10 9 9 8 8 8 8 8 7 7 8 8 8 8 8 7 8 8 9 9 8 8 8 8 8 8
5 5 6 7 8 9 10 10 10 10 10 10 9 9 9 9 9 9 8 8 8 8 8 7 7 7 7 7 7 7 7 7 7 8 8 8 8 8 8 8 8 8 8
4 4 5 6 7 8 8 8 9 9 9 9 9 9 9 9 9 8 8 8 8 7 7 7 7 7 7 7 7 7 6 7 7 7 7 8 7 7 8 7 8 8 8
3 4 4 5 6 6 7 7 7 8 8 9 9 9 9 8 8 8 8 8 8 7 7 7 6 6 6 6 6 6 6 7 7 7 7 7 7 7 7 7 7 7 7
3 3 4 4 5 5 6 6 6 7 7 7 8 8 8 8 8 8 8 8 7 7 6 6 6 6 6 6 6 6 6 6 6 6 6 6 6 6 6 6 6 6 6
3 3 3 4 4 4 5 5 5 6 6 6 6 7 7 7 7 8 8 7 7 6 6 5 5 5 5 5 5 5 5 5 5 5 5 5 5 5 5 5 5 5 5
2 2 3 3 3 3 4 4 4 5 5 5 5 5 6 6 6 7 7 7 6 6 5 5 4 4 5 5 5 5 5 5 5 4 4 4 4 4 4 4 4 4 4
2 2 3 3 3 3 3 3 4 4 4 4 4 4 4 5 5 6 6 6 6 5 4 4 4 4 4 4 5 5 4 4 4 4 4 4 4 4 3 3 3 3 2
2 2 2 3 3 3 3 3 2 3 3 3 2 3 3 3 4 5 5 5 5 5 4 4 4 4 4 4 5 5 4 4 4 3 3 3 3 3 3 3 3 2 2
3 3 3 2 2 2 2 2 2 2 2 2 1 2 2 2 2 3 4 4 4 3 3 3 3 3 4 4 4 4 4 3 3 3 3 3 2 2 2 2 2 2 1
4 4 3 3 1 1 2 1 1 2 2 1 1 0 1 1 1 1 2 2 3 2 2 2 2 2 3 3 3 3 3 3 3 3 3 3 2 2 1 2 2 2 1
5 4 3 3 1 1 1 2 2 2 3 2 2 1 0 0 0 0 1 1 2 2 1 1 1 1 2 2 2 2 2 2 2 2 2 2 2 2 2 2 2 2 2
5 4 3 3 2 1 0 1 3 3 4 4 3 2 2 2 1 1 1 1 0 1 1 1 1 0 1 1 1 1 2 2 1 2 2 2 2 2 2 2 3 2 2
6 5 4 3 2 1 1 2 3 4 4 4 4 4 3 3 3 2 2 2 1 1 1 1 1 1 1 0 0 0 1 0 1 1 1 2 2 2 3 3 3 3 2
7 6 5 4 3 2 3 3 4 4 5 6 6 6 5 4 4 4 4 3 3 3 2 2 2 2 2 1 1 1 1 1 1 1 1 2 2 2 3 3 3 3 3
8 7 7 6 4 4 3 3 4 4 5 6 6 6 6 6 6 5 5 5 4 4 3 4 3 3 2 2 2 2 2 2 2 2 2 2 3 3 3 3 3 3 4
8 8 7 7 6 5 5 4 5 5 5 7 6 7 7 7 7 7 7 6 6 6 5 5 5 5 4 3 3 3 3 3 3 3 3 3 3 3 4 4 4 4 4
8 8 8 8 7 7 6 5 6 6 6 7 8 9 9 9 9 9 9 8 8 8 7 6 7 7 6 5 5 4 4 4 3 4 4 4 4 4 4 4 4 4 5
9 9 9 8 8 7 7 6 7 7 7 8 10 9 9 10 10 10 11 11 10 10 9 8 8 8 8 7 6 6 6 5 4 5 5 5 5 5 5 5 5 5 5
9 9 9 8 8 8 8 8 9 9 8 9 9 10 11 11 11 11 12 12 12 12 11 10 10 10 10 9 8 7 7 7 6 6 6 6 6 6 6 6 6 7 7
10 9 9 8 9 9 9 10 10 9 9 10 10 11 12 12 13 13 14 14 13 13 13 12 12 11 11 11 10 9 9 8 8 8 8 8 8 8 8 8 8 9 8
10 10 9 9 10 11 11 11 10 10 11 10 11 12 13 13 14 15 15 15 15 14 14 14 13 13 13 13 12 12 11 11 10 10 10 10 10 10 10 10 10 10 10
10 10 10 10 11 11 12 12 12 12 12 12 11 11 12 13 14 14 14 15 15 16 16 16 16 15 15 14 14 14 14 14 13 13 13 12 12 12 12 12 12 12 12
10 10 10 10 11 12 12 13 13 13 13 12 12 12 11 13 13 14 14 14 15 16 17 17 17 18 17 17 16 16 16 16 16 16 15 15 15 14 14 14 14 15 15
11 10 11 11 12 13 13 13 14 13 11 10 11 11 12 13 12 13 13 15 16 16 17 17 18 19 19 18 18 18 18 18 18 18 18 17 17 17 17 17 17 17 17

GEFSSE_500_meanwind_174.txt.gz
Wind_Speed
11 10 10 10 10 11 11 12 12 13 13 14 14 14 13 13 12 12 11 10 10 10 10 10 9 9 8 8 8 8 8 8 8 8 8 8 7 7 7 7 6 6 6
9 9 8 8 9 10 10 11 11 12 12 13 13 13 12 12 11 11 10 10 10 10 10 9 9 8 8 8 8 8 8 8 8 8 8 8 7 7 7 7 7 6 6
8 8 8 7 8 8 9 10 10 11 12 12 12 12 12 11 11 10 10 9 9 9 9 9 9 8 8 8 7 7 8 8 8 8 8 8 7 7 6 6 6 6 5
7 7 6 6 7 7 8 9 10 10 11 11 11 11 11 10 10 9 9 9 9 8 8 8 9 9 8 8 7 8 8 8 8 8 8 7 7 7 6 6 5 5 5
6 6 5 5 6 6 7 8 9 10 10 11 10 10 10 10 9 9 9 8 8 8 8 8 8 8 8 8 8 8 8 8 7 8 7 7 6 6 6 5 5 5 4
5 5 4 4 5 6 6 7 8 9 9 10 10 10 9 9 9 9 8 8 8 8 8 7 7 8 7 7 7 7 7 7 7 7 7 6 6 6 5 5 4 4 4
4 4 3 3 3 4 5 6 7 8 8 9 9 9 9 9 8 8 8 7 7 7 7 7 7 7 6 7 6 6 6 6 6 6 6 6 5 5 5 4 4 4 3
3 3 2 2 2 3 4 5 6 7 7 8 8 8 8 8 7 7 7 7 7 6 6 6 6 6 6 6 6 6 6 6 6 6 5 5 5 4 4 4 3 3 3
3 2 1 1 1 2 3 4 5 6 6 7 7 7 7 7 6 6 7 6 6 6 5 6 6 6 6 6 6 6 6 5 5 4 4 4 4 4 3 3 3 2 2
3 2 1 0 1 2 2 3 4 5 5 5 5 5 6 6 5 6 6 6 6 5 5 5 5 5 6 6 5 5 5 5 4 4 4 3 3 3 3 2 2 1 1
2 2 1 0 1 2 2 2 3 4 4 4 4 4 5 5 4 4 5 5 5 5 5 5 5 5 5 5 5 5 4 4 4 3 3 3 3 2 2 1 1 1 0
3 2 1 0 1 2 2 3 3 3 4 4 4 4 4 4 4 4 4 4 4 4 4 4 5 5 4 4 4 4 4 4 3 3 2 2 2 2 1 0 0 0 1
4 2 1 0 1 1 2 2 3 3 3 4 4 4 3 4 4 4 3 3 3 3 3 4 4 4 4 3 3 3 3 3 3 2 2 2 2 1 1 1 1 1 2
4 3 2 1 0 1 2 3 3 4 4 4 4 4 4 4 4 4 3 3 2 2 3 4 4 4 3 3 2 2 2 2 2 2 2 2 1 1 1 1 2 2 2
4 3 2 2 1 1 2 3 3 3 3 4 4 4 4 4 4 4 5 4 3 2 3 4 4 4 3 3 2 2 2 2 1 1 1 1 1 1 1 1 2 2 2
4 3 2 2 2 2 2 2 2 4 4 3 4 4 5 5 5 5 5 5 4 3 3 4 3 3 3 3 2 2 2 2 1 1 1 0 0 0 1 2 2 2 2
5 4 3 3 3 3 3 2 3 4 4 5 5 5 6 6 6 6 6 6 6 5 4 4 5 4 4 3 3 3 2 2 2 2 2 2 1 1 2 2 2 2 2
5 5 5 5 4 4 4 4 4 5 5 5 6 7 8 8 8 8 8 7 7 6 6 5 6 6 6 5 4 4 4 3 3 2 2 3 2 2 2 3 2 3 3
6 5 5 6 5 5 5 5 4 5 5 6 7 9 9 9 9 9 8 8 8 8 7 7 7 7 7 7 6 6 5 4 4 3 4 4 4 3 3 3 4 4 4
6 6 6 6 6 6 6 6 5 6 6 7 7 8 10 11 10 10 10 10 10 10 9 8 8 8 8 8 8 7 7 6 6 5 5 5 5 5 5 5 5 5 5
7 8 7 7 8 8 7 7 7 7 7 7 8 8 9 10 11 11 11 11 11 11 11 10 9 9 9 9 9 9 9 8 7 7 7 6 7 7 7 7 7 6 7
8 9 9 9 9 9 9 8 8 9 9 9 9 10 10 10 11 11 12 11 11 12 12 11 11 11 11 11 10 10 10 10 10 9 9 9 8 8 9 9 9 9 9
10 11 11 11 10 10 10 11 11 10 10 10 10 10 10 11 12 12 12 12 12 12 12 13 13 12 12 12 12 12 12 12 12 11 11 11 10 10 11 11 11 11 11
11 12 12 11 11 11 11 13 13 12 11 11 11 11 10 11 12 11 12 13 13 12 12 14 14 14 14 14 13 13 13 13 13 13 13 13 13 13 13 13 13 13 13
12 12 12 12 11 12 13 14 14 14 13 12 12 12 12 12 13 13 13 13 13 13 13 14 15 16 15 15 15 15 15 15 16 16 16 15 15 15 15 15 15 16 16
12 13 13 12 12 14 14 14 13 13 14 14 13 13 12 12 13 14 14 14 14 14 14 15 15 16 17 17 18 17 17 17 18 18 18 18 18 18 18 18 18 18 19

GEFSSE_500_meanwind_180.txt.gz
Wind_Speed
8 8 8 7 7 6 6 6 6 7 7 8 8 8 9 9 9 9 9 9 9 9 9 9 9 9 8 8 8 8 8 8 8 8 8 8 8 8 7 7 7 7 7
7 7 6 6 5 5 5 5 5 5 6 7 7 7 7 8 8 8 9 9 8 8 8 8 9 8 8 8 8 8 8 9 8 8 8 8 8 8 7 7 7 7 7
6 6 5 5 4 4 4 4 4 5 5 5 6 6 6 7 7 7 8 8 8 8 8 8 8 8 7 7 7 7 8 8 8 8 8 7 7 7 7 6 6 7 6
5 5 5 5 4 4 3 3 3 3 4 4 4 5 5 6 6 7 7 7 7 7 7 7 7 7 7 7 7 7 7 7 7 8 7 7 7 6 6 6 6 6 6
4 4 4 4 4 3 3 2 2 2 3 3 3 3 4 5 5 6 6 6 6 6 6 6 7 7 7 6 6 6 6 6 6 7 7 7 7 6 6 6 6 6 6
4 4 4 4 3 3 3 2 2 2 2 2 2 3 3 4 4 4 5 5 5 5 6 6 6 6 6 6 6 6 6 6 6 6 6 6 6 6 6 6 5 5 5
4 4 3 4 3 3 3 2 2 1 1 1 2 2 2 3 3 4 4 4 5 5 5 5 5 5 5 5 5 6 6 5 5 5 5 5 5 5 6 6 5 5 5
3 3 3 3 3 3 3 2 2 2 1 1 1 1 1 2 2 3 3 4 4 4 5 5 5 4 5 5 5 5 5 5 5 4 4 4 4 4 5 5 5 5 5
3 3 3 3 3 3 3 3 3 2 2 1 1 1 1 1 1 2 3 3 3 4 4 4 4 4 4 4 4 5 5 4 4 4 4 3 3 4 3 3 3 4 4
3 3 3 3 3 3 4 3 3 3 2 2 2 2 1 1 1 1 2 2 3 3 3 3 3 3 3 4 4 4 4 4 3 3 3 3 3 3 3 3 3 3 3
4 3 3 4 4 4 4 4 4 4 3 3 3 2 2 1 1 0 1 1 2 2 2 2 3 3 3 3 3 3 4 3 3 3 3 3 2 2 2 3 2 2 2
5 4 4 4 4 4 4 4 4 4 4 3 3 3 3 2 2 1 1 1 1 1 1 2 2 2 3 3 3 3 3 3 3 2 2 2 2 2 2 2 3 3 2
6 5 5 5 5 4 5 5 4 4 4 4 3 3 3 3 3 2 1 1 1 1 1 1 2 2 2 2 2 2 2 2 2 2 2 1 1 1 2 2 3 3 3
7 6 6 6 5 5 5 5 5 5 5 4 4 4 4 4 3 3 2 2 3 2 2 2 2 2 2 1 1 1 1 2 2 1 1 1 1 1 2 2 2 3 3
8 7 7 7 6 6 6 6 6 5 5 5 4 4 4 4 4 4 4 4 4 3 3 3 3 2 2 2 2 1 1 0 1 0 0 1 1 1 1 2 2 3 3
9 8 7 7 7 7 7 6 6 6 5 5 5 5 5 5 5 5 4 4 4 4 3 3 3 3 3 3 2 2 1 1 1 1 1 1 1 1 1 2 2 2 2
10 9 8 8 7 7 7 7 7 7 7 6 6 6 6 6 6 6 6 6 6 5 5 4 4 4 4 4 3 3 3 3 2 2 2 2 2 2 2 2 2 3 3
11 10 9 8 7 8 8 8 8 7 7 7 7 7 8 8 8 8 8 8 8 7 6 6 6 5 5 5 5 4 4 4 4 4 4 4 4 3 3 3 3 3 3
11 11 10 10 9 9 9 9 9 8 7 7 7 7 8 8 9 9 9 9 9 8 8 8 7 7 6 7 7 7 6 6 6 6 5 5 5 4 4 4 4 4 4
11 12 11 10 10 10 10 10 9 9 8 9 8 8 7 8 9 10 10 10 10 9 9 8 8 8 8 8 8 8 8 8 7 7 7 7 6 6 6 5 6 6 6
12 12 12 11 11 11 11 12 11 10 10 10 10 9 9 9 9 10 9 9 9 10 10 10 9 9 9 9 9 9 9 9 9 9 9 8 8 8 7 7 7 8 8
12 13 13 14 13 12 13 13 12 11 11 11 11 11 9 10 9 9 9 8 8 10 10 10 11 11 11 11 11 11 10 10 11 11 11 11 11 10 10 9 9 10 10
12 13 13 15 14 13 13 13 12 11 12 12 11 11 10 10 10 9 9 9 9 10 11 12 12 12 12 12 12 11 11 12 12 12 12 12 12 12 12 11 11 11 12
13 13 14 15 15 15 15 13 12 12 13 13 12 12 11 11 11 10 9 9 10 11 12 12 13 13 14 13 13 13 13 13 14 14 14 14 14 14 14 14 13 13 13
13 14 15 15 16 16 15 14 13 13 13 14 13 12 11 11 11 10 10 11 11 11 12 13 14 15 15 15 15 15 15 15 15 16 16 17 16 16 16 16 16 15 15
14 14 15 15 16 16 16 15 14 14 14 15 14 14 12 12 11 11 11 12 12 13 13 14 14 15 16 16 16 16 17 17 18 18 18 18 18 18 19 18 18 18 18

GEFSSE_500_meanwind_186.txt.gz
Wind_Speed
12 12 11 11 10 10 9 9 8 8 7 7 7 7 7 7 7 7 7 7 8 8 9 9 9 9 9 9 10 10 10 10 10 10 10 10 9 9 9 9 9 8 8
11 11 10 10 9 9 8 8 7 7 6 7 6 6 6 6 7 7 7 7 7 8 8 8 8 9 9 9 9 10 10 9 10 10 10 10 9 9 9 9 9 9 9
11 10 10 9 9 8 8 7 7 6 6 6 6 6 6 6 6 6 6 6 6 7 7 7 8 8 8 8 8 9 9 9 9 9 9 9 9 9 9 9 8 9 8
10 9 9 9 8 8 7 7 6 6 6 6 6 6 5 5 5 5 5 5 5 6 6 7 7 7 8 8 7 8 8 8 8 8 8 8 8 8 8 8 8 8 8
9 9 8 8 8 8 7 7 6 6 6 6 6 5 5 4 4 4 5 5 5 5 5 6 6 7 7 7 7 7 7 7 8 8 8 8 8 8 8 8 7 7 7
8 8 7 7 7 7 7 7 7 6 6 6 6 6 5 5 4 4 4 4 4 4 5 5 5 6 6 6 6 6 7 7 8 7 7 7 7 7 7 8 7 7 7
8 7 7 7 7 7 7 7 7 7 6 6 6 6 5 5 5 4 3 3 3 4 4 5 5 5 6 6 6 5 6 6 7 7 6 6 6 6 6 7 7 7 7
8 7 6 6 7 7 7 7 7 7 6 6 6 5 5 5 5 4 3 3 4 4 4 4 4 5 5 5 5 5 5 5 6 6 6 5 5 5 5 6 6 6 6
7 7 6 6 7 7 6 6 6 6 6 6 5 5 5 5 4 4 4 3 4 4 4 4 4 4 4 4 4 4 4 5 5 5 4 4 4 4 4 4 5 5 5
8 7 7 7 7 7 6 6 6 6 6 6 5 4 4 4 4 4 3 3 3 3 3 3 3 3 4 4 4 3 3 4 3 3 3 3 3 3 3 3 4 4 4
9 8 7 7 7 7 6 6 6 6 6 5 4 4 4 3 3 3 3 2 2 2 2 2 3 3 3 3 3 3 3 3 3 2 2 2 2 2 2 2 3 3 3
10 9 8 7 7 7 6 6 6 6 6 5 4 3 3 3 3 2 1 1 2 2 1 1 2 2 2 2 2 2 2 2 2 2 1 1 1 1 1 2 2 2 2
9 9 8 7 7 7 6 6 6 6 5 4 4 3 3 2 2 2 1 1 1 1 1 1 1 1 2 2 2 2 1 1 1 1 0 0 0 1 1 1 1 2 1
10 9 7 7 7 7 6 5 6 6 5 4 4 4 2 2 2 1 1 1 1 1 0 0 0 0 1 1 1 2 1 1 1 0 1 0 0 1 1 2 1 2 2
10 9 8 7 7 6 6 6 6 5 5 4 3 3 2 2 1 1 1 2 2 2 2 2 2 2 2 2 2 1 1 1 1 1 1 1 1 1 2 2 2 2 2
12 10 9 8 7 7 6 7 7 6 5 4 4 3 3 2 2 2 3 3 3 2 3 3 3 3 3 3 3 2 2 2 2 2 2 2 2 2 2 2 2 2 2
12 11 9 9 8 8 8 8 8 7 6 5 4 4 4 3 3 3 3 4 4 4 4 4 4 4 4 4 4 3 3 3 3 3 3 3 3 3 3 3 3 3 3
12 11 10 9 9 9 8 8 8 8 7 6 6 6 5 4 4 4 4 4 4 5 5 5 5 5 5 6 5 4 4 4 4 4 4 4 4 4 4 4 4 4 4
12 11 10 10 10 9 9 9 9 8 8 7 7 7 6 5 5 5 5 5 5 5 5 6 6 6 7 7 7 6 6 6 6 6 6 5 5 5 5 5 5 6 6
12 11 11 10 10 9 9 9 9 8 8 8 7 8 7 7 6 6 6 6 6 6 6 7 8 8 8 8 8 8 8 8 8 8 7 8 8 7 8 8 8 8 8
11 10 10 10 10 9 9 9 9 9 9 8 7 8 8 7 6 6 6 6 6 6 7 7 8 9 9 9 9 9 9 10 10 9 9 9 10 10 10 10 11 11 11
10 10 10 10 10 10 10 10 10 9 9 9 8 8 8 7 7 6 6 6 6 7 8 8 8 9 9 10 10 10 10 11 11 11 11 11 12 12 12 13 13 13 13
10 11 10 10 10 10 10 10 10 9 9 9 9 9 8 8 7 7 6 7 7 8 9 9 9 9 10 11 11 11 12 12 12 11 12 12 13 14 14 15 14 14 15
11 12 11 10 10 10 10 10 10 10 9 9 9 9 9 9 8 8 7 7 7 8 9 11 10 11 11 12 13 12 13 13 14 13 14 14 15 15 16 16 16 16 17
12 12 12 10 10 11 10 10 10 10 9 9 9 9 9 9 9 8 8 8 9 9 10 11 11 12 12 13 14 14 14 14 15 16 16 16 16 16 16 17 18 19 19
11 12 11 10 11 11 11 10 10 10 10 10 10 10 9 9 9 10 10 10 9 10 10 10 12 12 13 14 15 15 16 16 16 17 18 18 18 18 18 19 18 20 20

GEFSSE_500_meanwind_192.txt.gz
Wind_Speed
10 11 11 12 12 13 13 13 13 13 13 12 11 11 10 10 10 9 8 8 8 8 8 9 9 9 9 9 9 9 9 9 10 10 10 9 9 9 9 9 9 9 9
10 11 11 11 11 12 12 12 12 12 12 12 11 11 10 10 9 9 8 8 8 8 8 8 9 9 9 9 9 9 9 9 9 9 9 9 8 8 8 8 9 9 9
9 10 10 11 11 11 11 11 11 11 11 11 11 11 10 10 9 9 8 8 8 8 8 8 8 8 8 8 8 8 8 9 9 9 8 8 8 8 8 8 9 9 9
8 9 9 10 11 11 11 11 11 11 11 11 11 10 9 9 9 8 8 8 8 8 8 8 8 8 8 8 8 8 7 8 8 7 7 7 8 8 8 8 8 8 8
7 8 9 10 10 10 10 11 11 11 10 10 10 10 9 8 8 8 8 8 7 7 7 7 8 7 7 7 7 7 7 7 7 7 7 7 7 7 7 7 7 7 7
7 8 9 9 10 10 10 10 10 10 10 10 10 9 9 8 8 8 7 7 7 6 7 7 7 7 7 7 7 7 7 7 7 7 7 7 7 7 6 6 6 6 6
7 8 9 9 9 9 9 9 9 9 9 9 9 9 9 8 8 7 7 7 6 6 7 6 6 6 7 6 6 7 7 6 6 7 6 6 6 6 6 5 5 6 6
8 8 8 8 8 8 8 8 8 8 8 8 8 8 8 8 7 7 7 6 6 6 6 6 6 6 6 6 6 6 6 6 6 6 6 6 6 6 5 5 5 5 5
8 8 8 8 8 8 8 8 7 7 7 7 7 7 7 7 7 7 6 6 6 6 6 5 5 5 5 6 6 5 5 6 5 5 5 5 5 5 5 5 5 5 4
9 8 8 7 7 8 8 8 7 7 7 7 6 6 6 6 6 6 6 6 5 5 5 4 5 4 4 5 5 5 5 5 5 5 4 4 4 4 4 4 4 4 4
9 9 8 7 7 7 7 7 7 7 7 6 5 5 6 6 6 5 5 5 5 4 4 4 4 3 4 4 4 4 4 4 4 4 4 4 4 4 4 3 3 3 3
10 9 8 7 6 7 7 7 7 7 7 6 5 5 5 5 5 4 4 4 3 3 3 3 3 3 3 3 3 3 3 4 3 3 3 3 3 3 3 2 2 2 2
10 9 8 7 7 6 6 7 7 7 6 6 5 4 4 3 3 3 2 2 2 2 2 2 2 2 2 2 3 3 2 2 2 2 2 3 3 3 2 2 2 2 2
10 9 9 8 7 7 6 7 7 7 6 5 5 4 3 2 2 2 2 1 1 1 1 1 1 1 2 2 2 1 1 1 1 1 2 2 2 2 2 2 2 2 2
10 9 9 9 8 7 7 7 7 7 6 5 4 4 3 2 2 2 1 1 1 0 1 1 1 2 2 1 1 1 1 0 0 1 1 1 2 2 2 1 2 2 2
11 10 9 9 8 7 7 7 7 7 7 5 5 4 3 3 3 2 1 1 1 1 2 2 2 2 2 2 2 2 2 2 2 2 1 1 1 1 1 1 2 2 3
11 10 9 9 8 7 6 6 6 6 6 5 5 5 4 3 3 3 3 3 2 2 3 4 4 4 4 3 3 4 4 4 3 3 3 2 2 2 2 2 3 3 3
12 11 10 10 9 7 7 7 7 6 6 6 5 5 5 4 4 3 3 3 3 4 3 4 5 5 5 5 5 5 5 5 4 4 4 4 4 4 4 4 4 4 5
12 11 10 9 9 8 8 8 7 6 6 6 6 5 5 5 4 4 4 4 4 5 4 4 4 5 6 7 7 6 6 6 6 6 6 6 6 7 7 7 7 7 7
11 10 9 9 8 8 8 8 8 7 6 6 6 6 6 5 5 5 5 6 6 6 5 6 6 6 7 8 8 8 8 8 7 8 8 8 9 9 9 9 9 9 9
9 9 9 9 8 8 8 8 8 7 6 6 7 6 6 6 6 5 6 6 7 7 7 7 8 8 8 8 9 9 9 10 10 9 10 10 10 11 11 11 11 11 12
9 8 8 9 8 8 8 8 7 7 7 7 7 7 6 6 7 6 7 7 8 8 8 8 9 10 9 9 9 10 10 11 11 11 11 11 12 12 13 13 13 14 14
9 8 8 9 9 9 9 8 8 7 8 8 8 7 7 7 8 8 9 8 8 9 9 10 10 10 11 11 11 11 12 12 13 13 13 13 14 14 15 15 15 15 16
8 9 9 10 10 10 10 9 8 8 9 8 8 8 8 8 8 9 9 9 9 10 11 11 12 12 12 13 13 13 13 14 14 14 15 15 15 16 17 17 16 17 17
9 10 10 11 11 11 10 8 8 9 8 8 8 8 8 9 9 9 9 9 10 11 11 12 12 12 12 12 13 14 14 15 16 16 17 17 17 18 18 18 18 19 18
9 10 11 11 11 11 9 8 9 9 9 9 9 9 9 10 10 10 10 9 10 10 11 10 11 11 12 13 14 14 15 16 17 17 18 18 19 20 20 20 21 21 21

GEFSSE_500_meanwind_198.txt.gz
Wind_Speed
11 11 10 10 9 10 10 11 11 11 12 12 12 11 11 12 12 12 11 11 11 11 11 11 11 11 10 11 10 10 9 10 10 9 9 9 9 9 8 8 8 9 9
10 9 9 9 9 9 10 10 11 11 11 12 12 12 12 12 13 13 13 12 11 11 11 11 11 10 10 10 10 10 10 10 9 9 9 9 8 8 8 8 8 8 8
9 8 8 8 8 9 9 10 10 10 11 11 11 11 12 12 12 13 13 12 12 11 11 11 10 10 10 9 9 10 9 9 9 8 8 8 8 8 8 8 7 7 7
8 8 8 8 8 8 9 9 10 10 10 10 10 11 11 11 12 12 12 11 11 11 10 10 10 9 9 9 9 9 9 9 9 8 8 8 8 8 8 7 7 7 6
7 7 7 7 8 8 8 9 9 9 9 10 10 10 11 11 11 11 10 10 10 10 10 9 9 9 9 8 8 8 8 8 8 8 8 7 7 7 7 6 6 6 6
7 6 7 7 7 7 8 8 8 8 9 9 9 10 10 10 10 10 9 9 9 9 9 9 9 8 9 8 8 7 8 8 8 8 7 7 7 7 6 6 6 6 6
6 6 6 6 6 6 7 7 7 8 8 8 9 9 9 8 8 9 8 9 9 8 8 8 8 8 8 8 7 7 7 7 7 7 7 7 7 6 6 5 5 5 5
6 6 5 6 6 6 7 7 7 7 7 8 8 8 8 8 8 8 8 8 8 8 8 8 8 7 7 7 7 7 7 7 7 7 6 6 6 5 5 5 5 5 4
6 6 5 5 6 6 6 6 6 6 6 7 7 7 8 7 7 7 7 7 7 7 7 7 7 7 7 7 7 7 7 6 6 6 5 5 5 5 4 4 4 4 4
6 6 5 5 5 6 6 6 6 6 6 6 6 7 7 6 6 7 7 7 6 6 6 6 6 7 6 6 6 6 7 6 6 5 5 5 5 4 4 4 4 3 3
7 6 6 5 5 5 6 6 6 6 6 6 6 5 5 5 5 5 5 5 5 5 6 6 6 6 6 5 5 6 6 5 5 5 4 4 4 4 4 3 3 3 2
7 6 6 6 5 5 5 6 5 5 5 5 4 4 4 4 4 3 3 4 4 4 5 5 5 5 5 5 5 5 5 4 4 4 4 3 3 3 3 3 2 2 2
8 7 6 6 6 5 5 5 5 5 5 4 4 3 3 3 3 3 3 3 3 4 4 4 4 4 4 4 4 4 4 3 3 3 3 2 2 2 2 2 1 1 1
9 8 6 6 6 6 6 6 6 5 5 4 3 3 2 2 2 2 2 3 3 3 3 4 4 4 4 4 4 4 3 3 2 3 2 2 2 2 1 1 1 1 0
9 8 7 7 7 6 6 6 6 5 4 3 2 2 3 2 2 1 1 2 2 3 4 4 4 4 4 4 4 4 3 3 3 2 2 2 2 2 2 1 2 1 1
9 10 9 7 7 6 6 6 5 5 4 3 2 2 1 1 1 1 0 0 1 2 3 4 4 4 4 4 4 3 3 3 3 3 3 3 2 2 2 2 2 2 3
10 10 9 9 8 7 6 6 6 6 4 4 3 2 1 1 1 1 1 1 1 2 2 3 4 4 4 4 4 4 4 4 3 4 4 4 4 4 3 4 4 4 4
10 10 9 9 8 8 7 6 6 6 5 4 4 3 2 1 0 1 1 2 2 3 3 4 4 4 5 5 6 5 5 5 5 5 5 6 6 6 5 5 6 6 6
11 11 10 9 8 8 7 7 7 7 6 5 5 5 4 3 2 2 2 3 3 4 4 5 5 6 6 6 7 7 7 7 7 7 7 7 7 7 7 7 7 7 8
10 11 10 9 10 9 8 8 7 7 7 6 6 5 5 5 4 3 3 3 4 5 5 5 6 7 8 8 8 8 8 9 9 9 9 9 9 9 9 9 9 9 10
11 11 10 10 10 10 8 8 8 7 7 7 6 6 6 6 5 5 4 4 5 6 6 7 8 8 9 10 9 10 10 10 10 11 11 11 11 10 11 11 11 12 12
11 11 10 11 10 10 9 8 8 9 8 8 8 7 6 6 7 6 6 6 7 7 7 8 8 9 9 11 11 11 10 11 11 12 12 13 13 12 12 13 13 13 14
10 10 10 10 10 10 9 9 9 9 9 9 8 7 6 7 7 8 8 7 7 7 8 8 9 9 9 10 11 11 11 12 13 14 14 14 15 14 14 15 15 15 16
9 9 10 11 11 11 9 9 9 9 10 9 8 7 7 7 7 8 9 9 8 8 8 8 9 10 10 11 12 12 12 13 14 15 15 15 15 16 17 17 17 17 17
8 9 10 11 11 11 10 9 9 9 9 9 8 8 7 7 8 8 9 10 10 10 9 9 9 10 11 11 11 12 13 14 15 16 16 17 17 18 18 18 18 18 18
9 10 10 11 12 12 11 10 9 9 9 9 9 9 8 8 8 9 10 10 11 11 10 9 9 10 11 12 12 13 14 15 16 16 17 18 19 19 19 19 19 20 20

GEFSSE_500_meanwind_204.txt.gz
Wind_Speed
9 9 9 8 8 8 7 7 7 7 8 8 8 8 9 9 9 10 10 10 10 10 10 10 10 10 11 11 10 10 10 10 10 10 10 9 9 10 10 9 9 9 8
9 9 8 8 8 7 7 7 6 7 7 7 8 8 9 9 9 9 9 9 9 9 10 10 10 11 11 11 10 10 10 10 10 10 10 10 10 9 9 9 9 8 8
8 8 8 8 7 7 7 6 6 6 6 6 8 9 9 9 9 9 9 9 10 10 10 10 10 10 10 10 10 10 10 10 10 9 9 9 9 9 9 8 8 7 7
8 8 8 8 7 7 7 7 6 6 6 6 7 8 9 10 10 10 10 9 10 9 10 9 9 10 10 10 10 10 10 10 10 9 9 9 9 9 9 9 8 7 7
8 8 7 7 7 7 6 6 6 6 6 6 7 8 8 9 9 9 9 9 9 9 9 10 9 10 9 9 9 9 9 9 9 9 9 9 9 8 8 8 8 7 7
8 8 8 7 7 7 7 6 6 6 7 6 6 6 7 8 8 8 8 8 8 8 9 9 9 9 8 8 8 8 8 8 8 8 8 8 8 8 8 8 8 7 7
8 8 8 7 7 7 7 6 6 6 6 6 6 6 6 7 7 7 7 8 7 8 8 8 8 8 8 7 7 7 7 8 8 7 7 7 7 7 7 7 6 6 6
9 8 7 7 7 6 6 6 5 5 6 6 6 6 6 6 7 7 6 7 7 7 7 7 7 7 7 7 7 7 6 7 7 6 6 6 6 6 6 6 5 5 5
9 8 7 7 6 6 6 5 5 5 5 5 6 6 6 6 6 6 6 6 5 5 5 6 6 6 6 6 6 6 6 6 6 6 6 5 5 5 5 5 4 4 4
10 9 7 7 7 6 6 5 4 4 4 4 4 5 5 5 5 5 5 5 5 4 4 5 5 6 6 6 6 6 5 5 6 5 5 4 4 4 4 3 3 3 3
11 9 8 7 7 7 6 6 5 4 3 4 3 4 4 4 3 4 4 4 4 4 4 4 4 5 5 5 5 5 5 5 5 4 4 4 3 3 3 3 2 2 2
11 10 9 8 8 7 7 6 5 4 4 3 3 3 3 3 3 3 3 3 3 3 3 3 3 4 4 4 3 4 4 3 3 3 2 2 2 2 2 2 2 1 1
12 11 11 10 9 8 7 7 6 5 5 4 4 3 3 3 3 3 3 2 2 2 2 3 3 2 3 3 3 3 2 3 3 2 1 1 1 1 1 1 1 1 1
13 12 11 11 10 9 8 8 7 7 6 6 4 3 3 3 3 3 3 1 1 1 2 3 3 2 2 2 2 2 2 2 2 1 1 1 1 1 1 1 1 1 1
14 13 12 12 11 10 9 9 8 8 7 6 5 4 3 3 3 2 3 2 1 1 2 3 3 3 3 3 2 2 2 2 2 2 2 2 2 2 2 2 2 2 2
14 14 13 11 12 11 11 10 9 8 8 7 5 5 4 3 2 2 2 2 1 0 1 2 3 3 3 3 3 3 3 3 3 3 3 3 3 3 3 4 4 4 4
14 14 14 12 11 12 12 11 10 8 8 7 6 5 4 3 3 2 2 2 1 1 1 2 3 4 4 4 5 4 4 4 4 4 4 4 4 4 4 4 5 5 6
14 14 14 13 13 12 12 11 10 9 8 7 6 5 4 4 3 3 3 3 2 2 3 3 3 4 5 5 5 6 6 6 6 6 5 5 5 6 6 6 7 7 7
13 14 14 14 13 12 12 11 11 10 10 8 7 5 5 5 4 4 3 4 3 3 3 4 4 5 6 6 7 7 7 7 7 7 7 7 7 8 8 8 8 9 8
13 14 14 14 13 12 13 13 12 11 10 8 7 6 5 6 6 5 5 5 4 4 5 5 6 6 6 6 7 8 8 8 9 9 8 8 8 9 9 10 10 10 10
14 14 14 14 13 13 13 13 13 12 10 9 7 6 6 6 6 6 6 6 6 6 6 6 6 7 7 7 8 8 10 10 10 10 10 10 9 10 10 10 11 11 12
13 13 14 14 14 13 13 13 13 13 11 10 8 7 7 7 6 7 7 8 7 7 6 6 6 7 8 8 8 9 9 10 11 12 12 12 11 12 12 12 13 14 14
13 13 13 14 13 14 14 14 14 12 11 10 9 8 8 7 7 8 8 8 7 7 6 6 6 7 8 9 9 9 10 11 13 12 13 13 13 13 14 15 15 15 15
12 12 13 13 13 13 14 14 13 12 12 11 10 9 9 8 8 8 9 8 8 7 7 7 7 7 8 9 10 10 10 11 13 13 13 14 14 14 15 15 16 17 16
12 12 13 13 13 13 14 13 12 12 12 11 10 10 9 9 9 8 9 10 9 8 8 8 8 8 8 9 10 10 11 11 12 13 14 14 14 15 16 16 16 17 17
12 12 13 13 13 13 13 13 12 12 11 11 10 10 10 10 10 9 9 9 9 9 9 9 9 9 9 9 10 11 11 11 12 13 14 14 15 15 16 17 18 18 18